Location: Pedimozza
(42.0500°N, 9.3500°E)
Time: 18:50:22
(UTC+00:00)

Meteor 2-14 Rocket - Pass Details

Date: 19 August 2019
Orbit: 938 x 956 km, 82.5° (Epoch: 22 September)

Event Time Altitude Azimuth Distance (km) Brightness Sun altitude
Rises 20:44:50 0° 350° (N) 3,622 8.4 -23.9°
Reaches altitude 10° 20:47:19 10° 350° (N) 2,676 7.5 -24.2°
Maximum altitude 20:53:27 80° 264° (W) 968 4.4 -25.0°
Enters shadow 20:55:14 49° 187° (S) 1,214 4.7 -25.2°
